• In Czech Republic
  • List of Countries
  • For 7 days
  • Water Temperature
  • Satellite Maps
  • Weather Map
  • Weather Widgets
  • user-avatar
    Login

    Hourly Weather Sessa Aurunca

    Today, 24 November, Friday

    Time Temperature Precipitation Wind Pressure Humidity
    00:00 +11°C° 0 mm 1 mps 749 mmHg 87%
    01:00 +11°C° 0 mm 1 mps 749 mmHg 88%
    02:00 +11°C° 0 mm 1 mps 749 mmHg 88%
    03:00 +10°C° 0 mm 1 mps 749 mmHg 87%
    04:00 +9°C° 0 mm 2 mps 748 mmHg 87%
    05:00 +9°C° 0 mm 2 mps 748 mmHg 86%
    06:00 +9°C° 0 mm 2 mps 748 mmHg 85%
    07:00 +10°C° 0 mm 1 mps 749 mmHg 83%
    08:00 +12°C° 0 mm 1 mps 749 mmHg 78%
    09:00 +13°C° 0 mm 1 mps 749 mmHg 73%
    10:00 +15°C° 0 mm 1 mps 749 mmHg 67%
    11:00 +16°C° 0 mm 1 mps 749 mmHg 66%
    12:00 +18°C° 0 mm 1 mps 748 mmHg 65%
    13:00 +17°C° 0 mm 2 mps 748 mmHg 64%
    14:00 +18°C° 0 mm 1 mps 748 mmHg 69%
    15:00 +16°C° 0 mm 1 mps 748 mmHg 73%
    16:00 +16°C° 0 mm 1 mps 748 mmHg 78%
    17:00 +15°C° 0 mm 1 mps 748 mmHg 82%
    18:00 +14°C° 0 mm 1 mps 748 mmHg 87%
    19:00 +13°C° 0 mm 1 mps 748 mmHg 91%
    20:00 +12°C° 0 mm 1 mps 748 mmHg 92%
    21:00 +12°C° 0 mm 1 mps 748 mmHg 92%
    22:00 +12°C° 0 mm 1 mps 748 mmHg 92%
    23:00 +12°C° 0 mm 1 mps 748 mmHg 93%

    Tomorrow, 25 November, Saturday

    Time Temperature Precipitation Wind Pressure Humidity
    00:00 +12°C° 0 mm 1 mps 748 mmHg 93%
    01:00 +11°C° 0 mm 1 mps 748 mmHg 93%
    02:00 +11°C° 0.1 mm 1 mps 748 mmHg 92%
    03:00 +11°C° 0.1 mm 1 mps 747 mmHg 92%
    04:00 +11°C° 0.1 mm 1 mps 747 mmHg 92%
    05:00 +12°C° 0.1 mm 1 mps 747 mmHg 92%
    06:00 +12°C° 0.1 mm 1 mps 747 mmHg 92%
    07:00 +12°C° 0.1 mm 1 mps 747 mmHg 92%
    08:00 +13°C° 0.1 mm 2 mps 746 mmHg 89%
    09:00 +14°C° 0.1 mm 2 mps 746 mmHg 86%
    10:00 +15°C° 0.1 mm 2 mps 746 mmHg 82%
    11:00 +16°C° 0.2 mm 3 mps 746 mmHg 80%
    12:00 +16°C° 0.2 mm 3 mps 745 mmHg 78%
    13:00 +17°C° 0.2 mm 4 mps 745 mmHg 76%
    14:00 +16°C° 0.1 mm 3 mps 744 mmHg 79%
    15:00 +16°C° 0.1 mm 3 mps 744 mmHg 82%
    16:00 +14°C° 0.1 mm 3 mps 744 mmHg 85%
    17:00 +14°C° 0.1 mm 3 mps 744 mmHg 87%
    18:00 +13°C° 0.1 mm 3 mps 744 mmHg 90%
    19:00 +13°C° 0.1 mm 3 mps 744 mmHg 93%
    20:00 +13°C° 0.1 mm 4 mps 744 mmHg 93%
    21:00 +13°C° 0.1 mm 4 mps 744 mmHg 93%
    22:00 +13°C° 0.1 mm 4 mps 744 mmHg 94%
    23:00 +13°C° 0.4 mm 4 mps 744 mmHg 93%

    Day after tomorrow, 26 November, Sunday

    Time Temperature Precipitation Wind Pressure Humidity
    00:00 +13°C° 0.4 mm 4 mps 743 mmHg 93%
    01:00 +13°C° 0.4 mm 4 mps 743 mmHg 93%
    02:00 +13°C° 0.3 mm 4 mps 743 mmHg 92%
    03:00 +12°C° 0.3 mm 4 mps 742 mmHg 92%
    04:00 +12°C° 0.3 mm 4 mps 742 mmHg 91%
    05:00 +12°C° 0 mm 5 mps 742 mmHg 90%
    06:00 +12°C° 0 mm 5 mps 742 mmHg 88%
    07:00 +10°C° 0 mm 5 mps 742 mmHg 86%
    08:00 +12°C° 0 mm 5 mps 742 mmHg 78%
    09:00 +13°C° 0 mm 6 mps 742 mmHg 70%
    10:00 +14°C° 0 mm 6 mps 742 mmHg 62%
    11:00 +14°C° 0 mm 7 mps 742 mmHg 60%
    12:00 +14°C° 0 mm 7 mps 741 mmHg 58%
    13:00 +14°C° 0 mm 7 mps 741 mmHg 56%
    14:00 +12°C° 0 mm 7 mps 741 mmHg 58%
    15:00 +12°C° 0 mm 7 mps 741 mmHg 60%
    16:00 +11°C° 0 mm 6 mps 740 mmHg 63%
    17:00 +10°C° 0 mm 6 mps 740 mmHg 66%
    18:00 +9°C° 0 mm 5 mps 741 mmHg 69%
    19:00 +8°C° 0 mm 5 mps 741 mmHg 72%
    20:00 +8°C° 0.3 mm 4 mps 741 mmHg 73%
    21:00 +8°C° 0.3 mm 3 mps 741 mmHg 74%
    22:00 +8°C° 0.3 mm 2 mps 741 mmHg 76%
    23:00 +8°C° 0.8 mm 3 mps 741 mmHg 78%

    27 November, Monday

    Time Temperature Precipitation Wind Pressure Humidity
    00:00 +8°C° 0.8 mm 3 mps 741 mmHg 80%
    01:00 +7°C° 0.8 mm 4 mps 742 mmHg 82%
    02:00 +7°C° 0.2 mm 4 mps 742 mmHg 80%
    03:00 +7°C° 0.2 mm 4 mps 742 mmHg 78%
    04:00 +6°C° 0.2 mm 4 mps 743 mmHg 77%
    05:00 +6°C° 0 mm 4 mps 743 mmHg 76%
    06:00 +5°C° 0 mm 4 mps 744 mmHg 76%
    07:00 +5°C° 0 mm 4 mps 745 mmHg 75%
    08:00 +6°C° 0 mm 4 mps 746 mmHg 70%
    09:00 +7°C° 0 mm 5 mps 746 mmHg 65%
    10:00 +8°C° 0 mm 5 mps 747 mmHg 59%
    11:00 +8°C° 0 mm 5 mps 747 mmHg 56%
    12:00 +10°C° 0 mm 4 mps 747 mmHg 52%
    13:00 +10°C° 0 mm 4 mps 747 mmHg 48%
    14:00 +8°C° 0 mm 4 mps 747 mmHg 49%
    15:00 +9°C° 0 mm 3 mps 747 mmHg 50%
    16:00 +8°C° 0 mm 3 mps 747 mmHg 51%
    17:00 +7°C° 0 mm 3 mps 747 mmHg 54%
    18:00 +5°C° 0 mm 3 mps 748 mmHg 57%
    19:00 +3°C° 0 mm 3 mps 748 mmHg 59%
    20:00 +3°C° 0 mm 3 mps 748 mmHg 60%
    21:00 +3°C° 0 mm 3 mps 748 mmHg 60%
    22:00 +2°C° 0 mm 3 mps 748 mmHg 60%
    23:00 +2°C° 0 mm 3 mps 748 mmHg 62%

    28 November, Tuesday

    Time Temperature Precipitation Wind Pressure Humidity
    00:00 +2°C° 0 mm 3 mps 748 mmHg 63%
    01:00 +2°C° 0 mm 3 mps 747 mmHg 64%
    02:00 +2°C° 0 mm 3 mps 747 mmHg 64%
    03:00 +2°C° 0 mm 3 mps 747 mmHg 64%
    04:00 +3°C° 0 mm 2 mps 747 mmHg 65%
    05:00 +2°C° 0 mm 2 mps 747 mmHg 63%
    06:00 +2°C° 0 mm 2 mps 747 mmHg 62%
    07:00 +2°C° 0 mm 2 mps 747 mmHg 61%
    08:00 +4°C° 0 mm 2 mps 747 mmHg 55%
    09:00 +6°C° 0 mm 2 mps 747 mmHg 48%
    10:00 +9°C° 0 mm 1 mps 747 mmHg 42%
    11:00 +10°C° 0 mm 1 mps 746 mmHg 41%
    12:00 +10°C° 0 mm 1 mps 746 mmHg 40%
    13:00 +11°C° 0 mm 1 mps 746 mmHg 39%
    14:00 +10°C° 0 mm 1 mps 745 mmHg 44%
    15:00 +10°C° 0 mm 1 mps 745 mmHg 49%
    16:00 +9°C° 0 mm 1 mps 745 mmHg 54%
    17:00 +8°C° 0 mm 1 mps 745 mmHg 59%
    18:00 +7°C° 0 mm 1 mps 745 mmHg 64%
    19:00 +5°C° 0 mm 1 mps 745 mmHg 70%
    20:00 +5°C° 0 mm 1 mps 745 mmHg 72%
    21:00 +5°C° 0 mm 1 mps 745 mmHg 75%
    22:00 +5°C° 0 mm 1 mps 745 mmHg 78%
    23:00 +5°C° 0 mm 1 mps 744 mmHg 80%

    29 November, Wednesday

    Time Temperature Precipitation Wind Pressure Humidity
    00:00 +5°C° 0 mm 1 mps 744 mmHg 82%
    01:00 +5°C° 0 mm 1 mps 744 mmHg 85%
    02:00 +4°C° 0 mm 2 mps 744 mmHg 85%
    03:00 +3°C° 0 mm 2 mps 743 mmHg 85%
    04:00 +3°C° 0 mm 2 mps 743 mmHg 85%
    05:00 +3°C° 0 mm 2 mps 743 mmHg 82%
    06:00 +3°C° 0 mm 2 mps 743 mmHg 80%
    07:00 +3°C° 0 mm 2 mps 743 mmHg 77%
    08:00 +4°C° 0 mm 3 mps 742 mmHg 73%
    09:00 +7°C° 0 mm 3 mps 742 mmHg 68%
    10:00 +9°C° 0 mm 3 mps 742 mmHg 63%
    11:00 +9°C° 0.1 mm 3 mps 741 mmHg 66%
    12:00 +9°C° 0.1 mm 3 mps 740 mmHg 69%
    13:00 +8°C° 0.1 mm 4 mps 739 mmHg 72%
    14:00 +8°C° 0.2 mm 4 mps 739 mmHg 77%
    15:00 +8°C° 0.2 mm 4 mps 738 mmHg 82%
    16:00 +8°C° 0.2 mm 5 mps 738 mmHg 87%
    17:00 +8°C° 1 mm 5 mps 738 mmHg 89%
    18:00 +8°C° 1 mm 6 mps 737 mmHg 91%
    19:00 +9°C° 1 mm 6 mps 737 mmHg 93%
    20:00 +9°C° 2.6 mm 7 mps 736 mmHg 92%
    21:00 +9°C° 2.6 mm 7 mps 735 mmHg 92%
    22:00 +10°C° 2.6 mm 8 mps 735 mmHg 92%
    23:00 +10°C° 4 mm 9 mps 734 mmHg 92%
    Show more